Regional Weather Roundup
Issued by NWS

Home | Current Version | Previous Version | Text Only | Print | Product List | Glossary Off
Versions: 1 2 3 4 5 6 7 8 9 10 11 12 13 14 15 16 17 18 19 20 21 22 23 24 25 26 27 28 29 30 31 32 33 34 35 36 37 38 39 40 41 42 43 44 45 46 47 48 49 50

000
ASUS43 KDTX 262301
RWRMI
MICHIGAN HOURLY REGIONAL WEATHER ROUNDUP
NATIONAL WEATHER SERVICE DETROIT/PONTIAC MI
600 PM EST THU FEB 26 2015

NOTE: "FAIR" INDICATES FEW OR NO CLOUDS BELOW 12,000 FEET WITH NO
SIGNIFICANT WEATHER AND/OR OBSTRUCTION TO VISIBILITY.

MIZ047>049-052>055-059>063-066>070-074>076-081>083-270000-
SOUTHEAST LOWER MICHIGAN

CITY           SKY/WX    TMP DP  RH WIND       PRES   REMARKS
ADRIAN         CLEAR     13   1  59 NE9       30.22R WCI   1
ALMA           CLEAR     11  -4  50 NW6       30.24R WCI   1
ANN ARBOR      CLOUDY    13   0  56 N9        30.21R WCI   1
BAD AXE        CLEAR      6  -2  69 NE8       30.24R WCI  -7
CARO           CLEAR      8   1  75 CALM      30.24R HAZE
DETROIT CITY   CLOUDY    15   1  53 N12       30.22R WCI   2
DETROIT        CLOUDY    15   1  53 NW9       30.23R WCI   3
FLINT          FLURRIES  11  -2  56 N9        30.24R WCI  -2
GROSSE ILE     CLOUDY    14   9  79 N6        30.21R WCI   5
HILLSDALE      PTCLDY    11   0  60 NW9       30.19R WCI  -2
HOWELL         PTCLDY     9  -2  61 N5        30.22R WCI   0

CITY           SKY/WX    TMP DP  RH WIND       PRES   REMARKS
JACKSON        PTCLDY    11   0  61 N8        30.21R WCI  -1
LAMBERTVILLE   MOCLDY    16   5  62 N7        30.23R WCI   6
LANSING        CLEAR     10  -5  50 N5        30.24R WCI   2
LAPEER         FAIR       8  -3  60 NE7       30.22R WCI  -3
MASON          CLOUDY     9  -3  57 N8        30.23R WCI  -3
MONROE         CLOUDY    14   3  62 N5        30.20R WCI   6
MT. CLEMENS    CLOUDY    11   3  68 N15       30.21R WCI  -5
PONTIAC        MOCLDY    10  -1  61 N8        30.19R WCI  -2
PORT HOPE        N/A      7  -4  60 N9        30.24R WCI  -7
PORT HURON     CLOUDY     9   0  66 N7        30.24R WCI  -3
TRI CITIES     PTCLDY    11   0  61 E8        30.26R WCI  -1
TROY           CLOUDY    15   1  53 NW9       30.24R WCI   3
SAGINAW HB     CLEAR     10   3  72 NE6       30.26R WCI   1
$$
MIZ043>046-050>051-056>058-064>065-071>073-077>080-270000-
SOUTHWEST LOWER MICHIGAN

CITY           SKY/WX    TMP DP  RH WIND       PRES   REMARKS
BATTLE CREEK   PTCLDY    13  -2  51 NE7       30.22R WCI   3
BENTON HARBOR  PTCLDY    12   3  67 VRB7      30.27R WCI   1
BIG RAPIDS     CLEAR     10  -6  48 N8        30.23R WCI  -2
COLDWATER      CLOUDY    13   1  58 NE7       30.21R WCI   2
FREMONT        FAIR      10  -8  42 NW9       30.26R WCI  -2
HOLLAND        PTCLDY    14  -6  40 NE5       30.27R WCI   6
GRAND RAPIDS   MOCLDY    13  -6  42 W9        30.24R WCI   1
IONIA          FAIR      10  -6  47 N3        30.24R
KALAMAZOO      MOCLDY    13  -2  51 NW10      30.24R WCI   0
LUDINGTON      CLEAR     10  -2  56 N9        30.31R WCI  -2
MARSHALL       PTCLDY    10  -3  56 CALM      30.22R
MOUNT PLEASANT CLEAR     12  -5  45 W3        30.23R
MUSKEGON       PTCLDY    12  -8  40 NW15      30.28R WCI  -4
SOUTH HAVEN    PTCLDY    15   0  51 N10       30.27R WCI   2
$$
MIZ016>042-270000-
NORTHERN LOWER MICHIGAN

CITY           SKY/WX    TMP DP  RH WIND       PRES   REMARKS
ALPENA         CLEAR      5  -8  55 N9        30.26R WCI  -9
BEAVER ISLAND  CLEAR      5  -7  56 NW7       30.30R WCI  -7
BELLAIRE       CLEAR      6 -10  47 CALM      30.31R
CADILLAC       CLEAR      3 -10  53 NW7       30.21R WCI  -9
CHARLEVOIX     CLEAR      4  -8  59 CALM      30.32S
FRANKFORT      MOCLDY     6  -2  71 CALM      30.32R
GAYLORD        CLEAR      3 -12  49 VRB6      30.20R WCI  -8
GRAYLING       CLEAR      5 -11  47 NW9       30.23R WCI  -9
HARBOR SPRINGS CLEAR      5  -8  57 W7        30.27S WCI  -7
HOUGHTON LAKE  CLEAR      7  -8  50 NW12      30.21R WCI  -8
MANISTEE       CLEAR      7  -9  47 N6        30.31R WCI  -3
OSCODA         CLEAR      9  -5  53 N9        30.24R WCI  -5
PELLSTON       CLEAR      4  -9  55 NW10      30.28  WCI -11
ROGERS CITY    CLEAR      6  -5  61 W8        30.27S WCI  -7
TRAVERSE CITY  PTCLDY     4  -9  55 NE3       30.30R
$$
MIZ007>008-015-270000-
EASTERN UPPER MICHIGAN

CITY           SKY/WX    TMP DP  RH WIND       PRES   REMARKS
KINROSS        CLEAR      1  -6  71 NW9       30.26R WCI -14
MACKINAC ISLAN CLEAR      4  -5  67 W5        30.26R WCI  -6
NEWBERRY       MOCLDY     2  -5  71 NW7       30.27R WCI -10
S. S. MARIE    CLEAR      1  -8  66 NW8       30.27R WCI -13
MUNISING         N/A      4  -7  60 NW7       30.32S WCI  -8
$$
MIZ004>006-011>014-085-270000-
CENTRAL UPPER MICHIGAN

CITY           SKY/WX    TMP DP  RH WIND       PRES   REMARKS
MANISTIQUE     CLEAR      5  -5  62 NW9       30.30R WCI  -9
ESCANABA       CLEAR     10  -9  40 NE5       30.31S WCI   2
MENOMINEE      CLEAR      9  -4  56 S5        30.31R WCI   0
SAWYER-GWINN   CLEAR      3  -6  66 NE7       30.24S WCI  -9
$$
MIZ001>003-009>011-084-270000-
WESTERN UPPER MICHIGAN

CITY           SKY/WX    TMP DP  RH WIND       PRES   REMARKS
IRON MOUNTAIN  CLEAR      9  -9  44 NW10      30.25R WCI  -5
HOUGHTON       MOCLDY     2  -7  66 W16       30.27F WCI -18
COPPER HARBOR    N/A      4  -7  60 NW10G21   30.30F WCI -11
IRONWOOD       CLEAR      5  -8  56 NW10      30.29S WCI -10
$$

ABBREVIATIONS USED IN REMARKS
   TC - TEMPERATURE IN CELSIUS
  WCI - WIND CHILL INDEX
   HX - HEAT INDEX
  VSB - VISIBILITY




USA.gov is the U.S. government's official web portal to all federal, state and local government web resources and services.